Location: Unspecified
(0.0000°N, 0.0000°E)
Time: 09:46:28
(UTC+00:00)

Courier 1B - All Passes

Search period start: 24 September 2023 00:00
Search period end: 04 October 2023 00:00
Orbit: 962 x 1209 km, 28.3° (Epoch: 23 September)

Date Brightness Start Highest point End Pass type
(mag) Time Alt. Az. Time Alt. Az. Time Alt. Az.
24 Sep - 01:04:52 10° WSW 01:08:26 15° SSW 01:11:59 10° S night (unlit)
24 Sep - 06:55:03 10° S 06:57:03 11° SSE 06:59:04 10° SE daylight
24 Sep - 08:45:24 10° SW 08:51:57 38° SSE 08:58:49 10° E daylight
24 Sep - 10:38:55 10° WSW 10:46:17 68° NNW 10:54:02 10° NE daylight
24 Sep - 12:35:20 10° WNW 12:41:04 22° NNW 12:46:55 10° NNE daylight
24 Sep - 18:29:16 10° N 18:30:39 11° NNE 18:32:02 10° NNE visible
24 Sep - 20:19:41 10° NNW 20:25:57 31° NNE 20:31:54 10° E visible
24 Sep - 22:13:16 10° WNW 22:20:14 77° SSW 22:26:50 10° SE night (unlit)
25 Sep - 00:09:35 10° WSW 00:14:26 21° SSW 00:19:12 10° SSE night (unlit)
25 Sep - 07:52:09 10° SSW 07:57:56 27° SSE 08:04:00 10° E daylight
25 Sep - 09:45:00 10° WSW 09:52:17 90° SE 10:00:00 10° ENE daylight
25 Sep - 11:40:28 10° W 11:46:51 29° NNW 11:53:27 10° NNE daylight
25 Sep - 13:41:19 10° NNW 13:42:26 10° NNW 13:43:33 10° N daylight
25 Sep - 19:26:11 10° NNW 19:31:53 24° NNE 19:37:20 10° ENE visible
25 Sep - 21:19:14 10° NW 21:26:23 78° NNE 21:33:07 10° ESE visible
25 Sep - 23:14:42 10° W 23:20:31 29° SSW 23:26:08 10° SSE night (unlit)
26 Sep - 06:59:09 10° SSW 07:03:54 19° SSE 07:08:49 10° ESE daylight
26 Sep - 08:51:18 10° SW 08:58:20 66° SSE 09:05:49 10° ENE daylight
26 Sep - 10:45:57 10° W 10:52:44 39° NNW 10:59:49 10° NE daylight
26 Sep - 12:44:27 10° NW 12:47:59 13° NNW 12:51:33 10° N daylight
26 Sep - 18:32:50 10° NNW 18:37:43 18° NNE 18:42:26 10° ENE visible
26 Sep - 20:25:20 10° NW 20:32:29 56° NNE 20:39:12 10° ESE visible
26 Sep - 22:20:06 10° W 22:26:39 42° SSW 22:32:52 10° SE night (unlit)
27 Sep - 00:19:00 10° SW 00:21:15 12° SSW 00:23:29 10° S night (unlit)
27 Sep - 06:06:34 10° S 06:09:49 14° SSE 06:13:08 10° SE daylight
27 Sep - 07:57:47 10° SW 08:04:24 47° SSE 08:11:26 10° ENE daylight
27 Sep - 09:51:42 10° WSW 09:58:41 52° NNW 10:06:04 10° NE daylight
27 Sep - 11:48:52 10° WNW 11:53:37 18° NNW 11:58:30 10° NNE daylight
27 Sep - 17:39:41 10° N 17:43:24 14° NNE 17:47:03 10° NE daylight
27 Sep - 19:31:34 10° NW 19:38:31 41° NNE 19:45:05 10° E visible
27 Sep - 21:25:42 10° WNW 21:32:47 59° SSW 21:39:27 10° SE visible
27 Sep - 23:23:00 10° WSW 23:27:10 17° SSW 23:31:15 10° SSE night (unlit)
28 Sep - 07:04:27 10° SSW 07:10:29 34° SSE 07:16:50 10° E daylight
28 Sep - 08:57:42 10° WSW 09:04:42 71° NNW 09:12:10 10° NE daylight
28 Sep - 10:53:48 10° WNW 10:59:22 23° NNW 11:05:10 10° NNE daylight
28 Sep - 16:47:12 10° N 16:49:00 11° NNE 16:50:46 10° NNE daylight
28 Sep - 18:37:55 10° NNW 18:44:27 31° NNE 18:50:42 10° E visible
28 Sep - 20:31:29 10° WNW 20:38:54 82° SSW 20:45:51 10° ESE visible
28 Sep - 22:27:44 10° W 22:33:10 24° SSW 22:38:23 10° SSE night (unlit)
29 Sep - 06:11:19 10° SSW 06:16:33 24° SSE 06:21:59 10° E daylight
29 Sep - 08:03:54 10° WSW 08:10:47 84° SSE 08:18:07 10° ENE daylight
29 Sep - 09:59:06 10° W 10:05:13 30° NNW 10:11:39 10° NNE daylight
29 Sep - 11:59:24 10° NNW 12:00:42 10° NNW 12:01:59 10° N daylight
29 Sep - 17:44:23 10° NNW 17:50:18 24° NNE 17:56:01 10° ENE daylight
29 Sep - 19:37:25 10° NW 19:44:58 74° NNE 19:52:03 10° ESE visible
29 Sep - 21:32:51 10° W 21:39:13 33° SSW 21:45:16 10° SSE visible
30 Sep - 05:18:27 10° SSW 05:22:34 17° SSE 05:26:46 10° ESE visible
30 Sep - 07:10:18 10° SW 07:16:55 61° SSE 07:23:56 10° ENE daylight
30 Sep - 09:04:42 10° W 09:11:10 40° NNW 09:18:00 10° NE daylight
30 Sep - 11:02:53 10° NW 11:06:17 13° NNW 11:09:46 10° N daylight
30 Sep - 16:51:01 10° NNW 16:56:03 18° NNE 17:00:58 10° ENE daylight
30 Sep - 18:43:31 10° NW 18:50:59 54° NNE 18:58:03 10° ESE visible
30 Sep - 20:38:13 10° WNW 20:45:17 46° SSW 20:51:56 10° SE visible
30 Sep - 22:36:38 10° SW 22:39:54 14° SSW 22:43:07 10° S night (unlit)
01 Oct - 04:26:07 10° S 04:28:29 12° SSE 04:30:52 10° SE visible
01 Oct - 06:16:52 10° SW 06:23:04 43° SSE 06:29:35 10° E daylight
01 Oct - 08:10:34 10° WSW 08:17:12 54° NNW 08:24:15 10° NE daylight
01 Oct - 10:07:27 10° WNW 10:11:59 17° NNW 10:16:41 10° NNE daylight
01 Oct - 15:57:56 10° N 16:01:41 14° NNE 16:05:24 10° NE daylight
01 Oct - 17:49:44 10° NW 17:56:55 40° NNE 18:03:48 10° E daylight
01 Oct - 19:43:49 10° WNW 19:51:20 65° SSW 19:58:25 10° SE visible
01 Oct - 21:40:53 10° WSW 21:45:48 19° SSW 21:50:32 10° SSE visible
02 Oct - 05:23:35 10° SSW 05:29:12 30° SSE 05:35:01 10° E visible
02 Oct - 07:16:39 10° WSW 07:23:18 75° NNW 07:30:23 10° NE daylight
02 Oct - 09:12:31 10° WNW 09:17:49 23° NNW 09:23:21 10° NNE daylight
02 Oct - 15:05:43 10° N 15:07:14 11° NNE 15:08:46 10° NNE daylight
02 Oct - 16:56:07 10° NNW 17:02:47 30° NNE 17:09:17 10° E daylight
02 Oct - 18:49:36 10° WNW 18:57:22 87° SSW 19:04:43 10° ESE visible
02 Oct - 20:45:41 10° W 20:51:45 27° SSW 20:57:33 10° SSE visible
03 Oct - 04:30:29 10° SSW 04:35:18 21° SSE 04:40:12 10° ESE visible
03 Oct - 06:22:55 10° SW 06:29:29 79° SSE 06:36:24 10° ENE daylight
03 Oct - 08:17:56 10° W 08:23:45 30° NNW 08:29:53 10° NNE daylight
03 Oct - 10:18:36 10° NNW 10:19:03 10° NNW 10:19:30 10° NNW daylight
03 Oct - 16:02:38 10° NNW 16:08:35 23° NNE 16:14:26 10° ENE daylight
03 Oct - 17:55:34 10° NW 18:03:21 70° NNE 18:10:49 10° ESE visible
03 Oct - 19:50:50 10° W 19:57:44 37° SSW 20:04:18 10° SE visible
03 Oct - 21:50:42 10° SW 21:52:40 11° SSW 21:54:36 10° S visible
